• In Österreich
  • Länderverzeichnis
  • Für 7 Tage
  • Wassertemperatur
  • Satellitenkarten
  • Wetterkarte
  • News
  • Widgets
  • user-avatar
    Anmelden

    Stündliche Wetter Grado

    Heute, 26 Juli, Mittwoch

    Zeit Temperatur Niederschläge Wind Luftdruck Luftfeuchtigkeit
    00:00 +17°C° 0,1 mm 3 m/S 754 mmHg 73%
    01:00 +17°C° 0,1 mm 3 m/S 754 mmHg 73%
    02:00 +17°C° 0,3 mm 3 m/S 754 mmHg 74%
    03:00 +17°C° 0,3 mm 3 m/S 754 mmHg 74%
    04:00 +17°C° 0,3 mm 3 m/S 754 mmHg 74%
    05:00 +18°C° 0,5 mm 3 m/S 754 mmHg 74%
    06:00 +19°C° 0,5 mm 3 m/S 754 mmHg 74%
    07:00 +20°C° 0,5 mm 3 m/S 754 mmHg 74%
    08:00 +23°C° 0,1 mm 2 m/S 754 mmHg 67%
    09:00 +25°C° 0,1 mm 2 m/S 754 mmHg 59%
    10:00 +27°C° 0,1 mm 1 m/S 754 mmHg 52%
    11:00 +27°C° 0,1 mm 2 m/S 754 mmHg 50%
    12:00 +28°C° 0,1 mm 2 m/S 754 mmHg 48%
    13:00 +28°C° 0,1 mm 2 m/S 754 mmHg 47%
    14:00 +28°C° 0,1 mm 2 m/S 754 mmHg 48%
    15:00 +28°C° 0,1 mm 1 m/S 754 mmHg 50%
    16:00 +28°C° 0,1 mm 1 m/S 754 mmHg 51%
    17:00 +27°C° 0,2 mm 1 m/S 754 mmHg 58%
    18:00 +25°C° 0,2 mm 2 m/S 755 mmHg 66%
    19:00 +24°C° 0,2 mm 2 m/S 755 mmHg 73%
    20:00 +21°C° 0 mm 2 m/S 755 mmHg 74%
    21:00 +20°C° 0 mm 2 m/S 756 mmHg 74%
    22:00 +19°C° 0 mm 2 m/S 757 mmHg 75%
    23:00 +19°C° 0 mm 3 m/S 757 mmHg 74%

    Morgen, 27 Juli, Donnerstag

    Zeit Temperatur Niederschläge Wind Luftdruck Luftfeuchtigkeit
    00:00 +18°C° 0 mm 3 m/S 757 mmHg 74%
    01:00 +18°C° 0 mm 3 m/S 758 mmHg 73%
    02:00 +17°C° 0 mm 3 m/S 758 mmHg 73%
    03:00 +17°C° 0 mm 3 m/S 758 mmHg 72%
    04:00 +17°C° 0 mm 3 m/S 758 mmHg 72%
    05:00 +18°C° 0 mm 2 m/S 758 mmHg 71%
    06:00 +19°C° 0 mm 2 m/S 758 mmHg 70%
    07:00 +20°C° 0 mm 2 m/S 758 mmHg 70%
    08:00 +24°C° 0 mm 2 m/S 758 mmHg 61%
    09:00 +26°C° 0 mm 1 m/S 758 mmHg 53%
    10:00 +29°C° 0 mm 1 m/S 758 mmHg 45%
    11:00 +29°C° 0 mm 1 m/S 758 mmHg 45%
    12:00 +29°C° 0 mm 2 m/S 758 mmHg 45%
    13:00 +29°C° 0 mm 2 m/S 757 mmHg 45%
    14:00 +29°C° 0 mm 2 m/S 757 mmHg 46%
    15:00 +29°C° 0 mm 2 m/S 757 mmHg 47%
    16:00 +29°C° 0 mm 2 m/S 757 mmHg 48%
    17:00 +27°C° 0 mm 2 m/S 757 mmHg 56%
    18:00 +26°C° 0 mm 1 m/S 757 mmHg 64%
    19:00 +24°C° 0 mm 1 m/S 757 mmHg 71%
    20:00 +23°C° 0 mm 1 m/S 758 mmHg 73%
    21:00 +22°C° 0 mm 1 m/S 758 mmHg 75%
    22:00 +21°C° 0 mm 1 m/S 759 mmHg 77%
    23:00 +20°C° 0 mm 2 m/S 759 mmHg 78%

    übermorgen, 28 Juli, Freitag

    Zeit Temperatur Niederschläge Wind Luftdruck Luftfeuchtigkeit
    00:00 +19°C° 0 mm 2 m/S 759 mmHg 78%
    01:00 +19°C° 0 mm 2 m/S 759 mmHg 78%
    02:00 +19°C° 0 mm 2 m/S 759 mmHg 77%
    03:00 +19°C° 0 mm 2 m/S 759 mmHg 76%
    04:00 +19°C° 0 mm 3 m/S 759 mmHg 75%
    05:00 +20°C° 0 mm 2 m/S 759 mmHg 73%
    06:00 +21°C° 0 mm 2 m/S 760 mmHg 70%
    07:00 +24°C° 0 mm 2 m/S 760 mmHg 67%
    08:00 +26°C° 0 mm 2 m/S 760 mmHg 61%
    09:00 +28°C° 0 mm 2 m/S 760 mmHg 55%
    10:00 +30°C° 0 mm 1 m/S 760 mmHg 48%
    11:00 +30°C° 0 mm 2 m/S 760 mmHg 47%
    12:00 +31°C° 0 mm 2 m/S 760 mmHg 47%
    13:00 +31°C° 0 mm 2 m/S 760 mmHg 46%
    14:00 +31°C° 0 mm 2 m/S 759 mmHg 47%
    15:00 +31°C° 0 mm 2 m/S 759 mmHg 49%
    16:00 +31°C° 0 mm 2 m/S 759 mmHg 50%
    17:00 +29°C° 0 mm 2 m/S 760 mmHg 57%
    18:00 +28°C° 0 mm 2 m/S 760 mmHg 65%
    19:00 +26°C° 0 mm 1 m/S 760 mmHg 72%
    20:00 +25°C° 0 mm 2 m/S 761 mmHg 74%
    21:00 +24°C° 0 mm 2 m/S 762 mmHg 76%
    22:00 +23°C° 0 mm 2 m/S 762 mmHg 78%
    23:00 +23°C° 0 mm 2 m/S 763 mmHg 78%

    29 Juli, Samstag

    Zeit Temperatur Niederschläge Wind Luftdruck Luftfeuchtigkeit
    00:00 +21°C° 0 mm 2 m/S 763 mmHg 78%
    01:00 +21°C° 0 mm 3 m/S 763 mmHg 77%
    02:00 +21°C° 0 mm 3 m/S 763 mmHg 78%
    03:00 +21°C° 0 mm 3 m/S 763 mmHg 78%
    04:00 +21°C° 0 mm 3 m/S 763 mmHg 78%
    05:00 +22°C° 0 mm 3 m/S 763 mmHg 76%
    06:00 +24°C° 0 mm 3 m/S 764 mmHg 74%
    07:00 +25°C° 0 mm 3 m/S 764 mmHg 73%
    08:00 +27°C° 0 mm 2 m/S 764 mmHg 65%
    09:00 +29°C° 0 mm 2 m/S 764 mmHg 57%
    10:00 +31°C° 0 mm 2 m/S 764 mmHg 49%
    11:00 +32°C° 0 mm 2 m/S 764 mmHg 48%
    12:00 +32°C° 0 mm 2 m/S 763 mmHg 46%
    13:00 +34°C° 0 mm 2 m/S 763 mmHg 44%
    14:00 +34°C° 0 mm 2 m/S 763 mmHg 46%
    15:00 +34°C° 0 mm 2 m/S 763 mmHg 47%
    16:00 +33°C° 0 mm 3 m/S 762 mmHg 49%
    17:00 +31°C° 0 mm 2 m/S 762 mmHg 56%
    18:00 +29°C° 0 mm 2 m/S 762 mmHg 64%
    19:00 +27°C° 0 mm 1 m/S 762 mmHg 71%
    20:00 +26°C° 0 mm 1 m/S 763 mmHg 72%
    21:00 +25°C° 0 mm 2 m/S 763 mmHg 73%
    22:00 +24°C° 0 mm 2 m/S 763 mmHg 74%
    23:00 +24°C° 0 mm 2 m/S 763 mmHg 73%

    30 Juli, Sonntag

    Zeit Temperatur Niederschläge Wind Luftdruck Luftfeuchtigkeit
    00:00 +24°C° 0 mm 2 m/S 763 mmHg 73%
    01:00 +22°C° 0 mm 3 m/S 763 mmHg 72%
    02:00 +22°C° 0,1 mm 3 m/S 763 mmHg 73%
    03:00 +22°C° 0,1 mm 3 m/S 763 mmHg 74%
    04:00 +22°C° 0,1 mm 3 m/S 763 mmHg 75%
    05:00 +24°C° 0,1 mm 2 m/S 763 mmHg 75%
    06:00 +25°C° 0,1 mm 2 m/S 763 mmHg 74%
    07:00 +26°C° 0,1 mm 2 m/S 763 mmHg 73%
    08:00 +28°C° 0,1 mm 2 m/S 763 mmHg 66%
    09:00 +30°C° 0,1 mm 1 m/S 763 mmHg 60%
    10:00 +32°C° 0,1 mm 1 m/S 763 mmHg 53%
    11:00 +32°C° 0,1 mm 1 m/S 762 mmHg 52%
    12:00 +34°C° 0,1 mm 2 m/S 762 mmHg 51%
    13:00 +34°C° 0,1 mm 2 m/S 762 mmHg 50%
    14:00 +34°C° 0 mm 2 m/S 762 mmHg 51%
    15:00 +34°C° 0 mm 2 m/S 762 mmHg 53%
    16:00 +34°C° 0 mm 2 m/S 761 mmHg 54%
    17:00 +31°C° 0 mm 2 m/S 762 mmHg 61%
    18:00 +30°C° 0 mm 2 m/S 762 mmHg 68%
    19:00 +28°C° 0 mm 1 m/S 762 mmHg 75%
    20:00 +27°C° 0 mm 2 m/S 762 mmHg 77%
    21:00 +26°C° 0 mm 2 m/S 763 mmHg 79%
    22:00 +25°C° 0 mm 2 m/S 763 mmHg 81%
    23:00 +25°C° 0 mm 2 m/S 763 mmHg 81%

    31 Juli, Montag

    Zeit Temperatur Niederschläge Wind Luftdruck Luftfeuchtigkeit
    00:00 +24°C° 0 mm 2 m/S 763 mmHg 82%
    01:00 +24°C° 0 mm 2 m/S 763 mmHg 82%
    02:00 +24°C° 0 mm 2 m/S 763 mmHg 82%
    03:00 +24°C° 0 mm 2 m/S 763 mmHg 81%
    04:00 +23°C° 0 mm 2 m/S 763 mmHg 81%
    05:00 +25°C° 0 mm 2 m/S 763 mmHg 78%
    06:00 +26°C° 0 mm 2 m/S 763 mmHg 76%
    07:00 +27°C° 0 mm 2 m/S 763 mmHg 73%
    08:00 +29°C° 0 mm 1 m/S 763 mmHg 66%
    09:00 +32°C° 0 mm 1 m/S 763 mmHg 59%
    10:00 +34°C° 0 mm 1 m/S 763 mmHg 52%
    11:00 +34°C° 0 mm 1 m/S 763 mmHg 50%
    12:00 +35°C° 0 mm 1 m/S 763 mmHg 48%
    13:00 +36°C° 0 mm 2 m/S 762 mmHg 46%
    14:00 +36°C° 0 mm 2 m/S 762 mmHg 46%
    15:00 +36°C° 0 mm 2 m/S 762 mmHg 47%
    16:00 +36°C° 0 mm 2 m/S 762 mmHg 47%
    17:00 +33°C° 0 mm 1 m/S 762 mmHg 55%
    18:00 +31°C° 0 mm 1 m/S 762 mmHg 63%
    19:00 +30°C° 0 mm 1 m/S 762 mmHg 71%
    20:00 +28°C° 0 mm 1 m/S 762 mmHg 73%
    21:00 +27°C° 0 mm 1 m/S 763 mmHg 74%
    22:00 +26°C° 0 mm 2 m/S 763 mmHg 75%
    23:00 +26°C° 0 mm 2 m/S 763 mmHg 74%
    Mehr zeigen